Location: Newark
(49.1000°N, 0.4667°W)
Time: 10:41:22
(UTC+00:00)

BEESAT 3 - Pass Details

Date: 03 July 2020
Orbit: 482 x 522 km, 64.9° (Epoch: 10 August)

Event Time Altitude Azimuth Distance (km) Brightness Sun altitude
Rises 00:49:35 0° 281° (WNW) 2,652 ? -17.3°
Reaches altitude 10° 00:52:57 10° 312° (NW) 1,768 ? -17.2°
Maximum altitude 00:54:41 12° 338° (NNW) 1,617 ? -17.2°
Drops below altitude 10° 00:56:25 10° 4° (N) 1,769 ? -17.1°
Sets 00:59:48 0° 35° (NE) 2,657 ? -17.0°
